When you browse on this site, cookies collect data to enhance your experience and personalize the content and advertising you see.
Visit our Privacy Policy to learn more. By continuing to use the site, you agree to this use of cookies and data.
  • Em Portugal
  • Lista de países
  • Para 7 dias
  • Temperatura da água
  • Mapa do tempo
  • Widgets de tempo
  • user-avatar
    Iniciar Sessão

    Previsão horária em Ingener-Pyatina

    Hoje, 23 Setembro, Segunda-feira

    Tempo Temperatura Precipitação Vento Pressão Humidade
    00:00 -1°C° 0.6 mm 7 m/s 733 mmHg 96%
    01:00 -1°C° 0.3 mm 7 m/s 734 mmHg 94%
    02:00 0°C° 0.3 mm 8 m/s 735 mmHg 92%
    03:00 +1°C° 0 mm 6 m/s 736 mmHg 93%
    04:00 +1°C° 0 mm 6 m/s 737 mmHg 93%
    05:00 +1°C° 0 mm 6 m/s 738 mmHg 93%
    06:00 +1°C° 0 mm 6 m/s 739 mmHg 93%
    07:00 +1°C° 0.4 mm 6 m/s 740 mmHg 90%
    08:00 0°C° 0.4 mm 7 m/s 740 mmHg 87%
    09:00 0°C° 0 mm 7 m/s 741 mmHg 83%
    10:00 +2°C° 0 mm 7 m/s 742 mmHg 81%
    11:00 +2°C° 0 mm 7 m/s 742 mmHg 78%
    12:00 +2°C° 0 mm 7 m/s 743 mmHg 76%
    13:00 +2°C° 0.1 mm 7 m/s 743 mmHg 77%
    14:00 +3°C° 0.1 mm 7 m/s 744 mmHg 78%
    15:00 +3°C° 0 mm 6 m/s 744 mmHg 77%
    16:00 +3°C° 0.4 mm 6 m/s 744 mmHg 82%
    17:00 +2°C° 0.4 mm 7 m/s 744 mmHg 87%
    18:00 +2°C° 0.4 mm 7 m/s 745 mmHg 92%
    19:00 0°C° 0.1 mm 7 m/s 745 mmHg 91%
    20:00 +1°C° 0.1 mm 6 m/s 745 mmHg 90%
    21:00 +1°C° 0.1 mm 6 m/s 746 mmHg 89%
    22:00 +1°C° 0 mm 6 m/s 746 mmHg 90%
    23:00 +1°C° 0 mm 5 m/s 746 mmHg 91%

    Amanhã, 24 Setembro, Terça-feira

    Tempo Temperatura Precipitação Vento Pressão Humidade
    00:00 +1°C° 0 mm 5 m/s 746 mmHg 91%
    01:00 +1°C° 0 mm 5 m/s 747 mmHg 91%
    02:00 0°C° 0 mm 5 m/s 747 mmHg 91%
    03:00 0°C° 0 mm 5 m/s 748 mmHg 90%
    04:00 0°C° 0 mm 5 m/s 748 mmHg 90%
    05:00 0°C° 0 mm 5 m/s 748 mmHg 90%
    06:00 0°C° 0 mm 4 m/s 748 mmHg 90%
    07:00 0°C° 0 mm 4 m/s 748 mmHg 89%
    08:00 +1°C° 0 mm 4 m/s 749 mmHg 88%
    09:00 +1°C° 0 mm 4 m/s 749 mmHg 86%
    10:00 +3°C° 0 mm 4 m/s 749 mmHg 83%
    11:00 +3°C° 0 mm 4 m/s 749 mmHg 80%
    12:00 +4°C° 0 mm 4 m/s 749 mmHg 77%
    13:00 +5°C° 0.1 mm 4 m/s 749 mmHg 73%
    14:00 +5°C° 0.1 mm 4 m/s 749 mmHg 70%
    15:00 +6°C° 0.1 mm 4 m/s 749 mmHg 66%
    16:00 +5°C° 0.2 mm 3 m/s 749 mmHg 71%
    17:00 +4°C° 0.2 mm 3 m/s 749 mmHg 77%
    18:00 +5°C° 0.2 mm 2 m/s 749 mmHg 82%
    19:00 +4°C° 0 mm 2 m/s 749 mmHg 85%
    20:00 +3°C° 0 mm 2 m/s 749 mmHg 87%
    21:00 +3°C° 0 mm 2 m/s 749 mmHg 90%
    22:00 +2°C° 0 mm 2 m/s 749 mmHg 91%
    23:00 +2°C° 0 mm 2 m/s 749 mmHg 92%

    Depois de amanhã, 25 Setembro, Quarta-feira

    Tempo Temperatura Precipitação Vento Pressão Humidade
    00:00 +2°C° 0 mm 2 m/s 749 mmHg 92%
    01:00 +1°C° 0 mm 2 m/s 750 mmHg 92%
    02:00 +1°C° 0 mm 2 m/s 750 mmHg 92%
    03:00 -1°C° 0 mm 2 m/s 750 mmHg 92%
    04:00 -1°C° 0 mm 2 m/s 750 mmHg 93%
    05:00 -1°C° 0 mm 2 m/s 750 mmHg 93%
    06:00 -2°C° 0 mm 2 m/s 750 mmHg 93%
    07:00 0°C° 0 mm 3 m/s 751 mmHg 88%
    08:00 +1°C° 0 mm 3 m/s 751 mmHg 83%
    09:00 +3°C° 0 mm 3 m/s 751 mmHg 78%
    10:00 +4°C° 0 mm 3 m/s 751 mmHg 73%
    11:00 +5°C° 0 mm 3 m/s 751 mmHg 68%
    12:00 +7°C° 0 mm 3 m/s 751 mmHg 63%
    13:00 +7°C° 0.1 mm 3 m/s 751 mmHg 62%
    14:00 +7°C° 0.1 mm 3 m/s 751 mmHg 62%
    15:00 +6°C° 0.1 mm 4 m/s 751 mmHg 61%
    16:00 +5°C° 0.1 mm 3 m/s 751 mmHg 66%
    17:00 +4°C° 0.1 mm 3 m/s 751 mmHg 71%
    18:00 +5°C° 0.1 mm 2 m/s 751 mmHg 76%
    19:00 +4°C° 0 mm 2 m/s 751 mmHg 78%
    20:00 +3°C° 0 mm 2 m/s 751 mmHg 81%
    21:00 +3°C° 0 mm 2 m/s 751 mmHg 83%
    22:00 +2°C° 0 mm 2 m/s 751 mmHg 84%
    23:00 +2°C° 0 mm 2 m/s 751 mmHg 85%

    26 Setembro, Quinta-feira

    Tempo Temperatura Precipitação Vento Pressão Humidade
    00:00 +2°C° 0 mm 2 m/s 751 mmHg 85%
    01:00 +2°C° 0 mm 2 m/s 751 mmHg 87%
    02:00 +2°C° 0 mm 2 m/s 751 mmHg 90%
    03:00 +1°C° 0 mm 2 m/s 751 mmHg 92%
    04:00 +1°C° 0 mm 2 m/s 751 mmHg 93%
    05:00 +1°C° 0 mm 2 m/s 751 mmHg 94%
    06:00 +1°C° 0 mm 2 m/s 751 mmHg 96%
    07:00 +2°C° 0 mm 2 m/s 751 mmHg 90%
    08:00 +4°C° 0 mm 2 m/s 751 mmHg 85%
    09:00 +4°C° 0 mm 3 m/s 751 mmHg 80%
    10:00 +5°C° 0 mm 3 m/s 751 mmHg 73%
    11:00 +7°C° 0 mm 3 m/s 751 mmHg 66%
    12:00 +7°C° 0 mm 4 m/s 751 mmHg 58%
    13:00 +7°C° 0 mm 4 m/s 751 mmHg 57%
    14:00 +7°C° 0 mm 4 m/s 751 mmHg 56%
    15:00 +7°C° 0 mm 4 m/s 751 mmHg 55%
    16:00 +7°C° 0 mm 3 m/s 751 mmHg 60%
    17:00 +5°C° 0 mm 3 m/s 751 mmHg 64%
    18:00 +6°C° 0 mm 2 m/s 751 mmHg 69%
    19:00 +5°C° 0 mm 2 m/s 751 mmHg 73%
    20:00 +4°C° 0 mm 2 m/s 751 mmHg 76%
    21:00 +3°C° 0 mm 2 m/s 751 mmHg 80%
    22:00 +3°C° 0 mm 2 m/s 751 mmHg 82%
    23:00 +3°C° 0 mm 2 m/s 750 mmHg 83%

    27 Setembro, Sexta-feira

    Tempo Temperatura Precipitação Vento Pressão Humidade
    00:00 +3°C° 0 mm 2 m/s 750 mmHg 85%
    01:00 +3°C° 0 mm 2 m/s 750 mmHg 87%
    02:00 +3°C° 0 mm 2 m/s 750 mmHg 88%
    03:00 +3°C° 0 mm 2 m/s 750 mmHg 90%
    04:00 +1°C° 0 mm 3 m/s 750 mmHg 91%
    05:00 +1°C° 0 mm 3 m/s 750 mmHg 92%
    06:00 +1°C° 0 mm 3 m/s 750 mmHg 93%
    07:00 +2°C° 0 mm 3 m/s 749 mmHg 88%
    08:00 +3°C° 0 mm 3 m/s 749 mmHg 83%
    09:00 +5°C° 0 mm 4 m/s 749 mmHg 78%
    10:00 +6°C° 0 mm 4 m/s 749 mmHg 73%
    11:00 +6°C° 0 mm 5 m/s 749 mmHg 68%
    12:00 +7°C° 0 mm 5 m/s 749 mmHg 63%
    13:00 +7°C° 0 mm 5 m/s 748 mmHg 67%
    14:00 +7°C° 0 mm 5 m/s 748 mmHg 71%
    15:00 +6°C° 0 mm 5 m/s 748 mmHg 75%
    16:00 +6°C° 0.1 mm 5 m/s 748 mmHg 80%
    17:00 +5°C° 0.1 mm 5 m/s 748 mmHg 84%
    18:00 +5°C° 0.1 mm 4 m/s 748 mmHg 88%
    19:00 +5°C° 0 mm 4 m/s 748 mmHg 89%
    20:00 +5°C° 0 mm 4 m/s 748 mmHg 90%
    21:00 +5°C° 0 mm 3 m/s 749 mmHg 91%
    22:00 +5°C° 0 mm 3 m/s 749 mmHg 93%
    23:00 +4°C° 0 mm 3 m/s 749 mmHg 94%

    28 Setembro, Sábado

    Tempo Temperatura Precipitação Vento Pressão Humidade
    00:00 +4°C° 0 mm 3 m/s 749 mmHg 95%
    01:00 +3°C° 0 mm 3 m/s 750 mmHg 96%
    02:00 +4°C° 0 mm 2 m/s 750 mmHg 96%
    03:00 +3°C° 0 mm 2 m/s 750 mmHg 97%
    04:00 +3°C° 0 mm 2 m/s 750 mmHg 97%
    05:00 +2°C° 0 mm 2 m/s 750 mmHg 97%
    06:00 +2°C° 0 mm 2 m/s 751 mmHg 97%
    07:00 +3°C° 0 mm 2 m/s 751 mmHg 91%
    08:00 +4°C° 0 mm 2 m/s 751 mmHg 85%
    09:00 +5°C° 0 mm 2 m/s 751 mmHg 79%
    10:00 +4°C° 0 mm 3 m/s 752 mmHg 75%
    11:00 +5°C° 0 mm 3 m/s 752 mmHg 70%
    12:00 +7°C° 0 mm 3 m/s 752 mmHg 65%
    13:00 +5°C° 0 mm 3 m/s 752 mmHg 66%
    14:00 +5°C° 0 mm 3 m/s 752 mmHg 66%
    15:00 +5°C° 0 mm 3 m/s 752 mmHg 67%
    16:00 +5°C° 0 mm 3 m/s 752 mmHg 68%
    17:00 +5°C° 0 mm 3 m/s 753 mmHg 69%
    18:00 +5°C° 0 mm 2 m/s 753 mmHg 71%
    19:00 +5°C° 0 mm 2 m/s 753 mmHg 71%
    20:00 +5°C° 0 mm 2 m/s 753 mmHg 72%
    21:00 +5°C° 0 mm 2 m/s 753 mmHg 72%
    22:00 +5°C° 0 mm 1 m/s 753 mmHg 75%
    23:00 +4°C° 0 mm 1 m/s 754 mmHg 77%
    Mostrar mais